Regional Weather Roundup
Issued by NWS

Home | Current Version | Previous Version | Graphics & Text | Print | Product List | Glossary On
Versions: 1 2 3 4 5 6 7 8 9 10 11 12 13 14 15 16 17 18 19 20 21 22 23 24 25 26 27 28 29 30 31 32 33 34 35 36 37 38 39 40 41 42 43 44 45 46 47 48
000
ASUS45 KSLC 262010
RWRUT

UTAH REGIONAL WEATHER ROUNDUP
NATIONAL WEATHER SERVICE SALT LAKE CITY UT
200 PM MDT THU MAR 26 2015

UTZ001>011-023>025-262100-

NORTHERN UTAH

CITY           SKY/WX    TMP DP  RH WIND       PRES   REMARKS
BRIGHAM CITY   SUNNY     55  26  31 N3        30.40S
HILL AFB       NOT AVBL
LOGAN          SUNNY     55  29  36 MISG      30.39F
OGDEN          SUNNY     57  24  28 VRB3      30.39F
PROVO AIRPORT  MOSUNNY   52  21  30 SW8       30.40F
SALT LAKE CITY MOSUNNY   56  24  29 NW9       30.38F
VERNAL         SUNNY     55  16  21 VRB3      30.30F
WENDOVER       SUNNY     55  23  28 E6        30.40F
HEBER CITY     SUNNY     55  25  30 CALM      30.35F
WEST JORDAN    SUNNY     57  28  33 NW8       30.39F

$$

UTZ012>022-026-027-262100-

SOUTHERN/CENTRAL UTAH

CITY           SKY/WX    TMP DP  RH WIND       PRES   REMARKS
BLANDING       SUNNY     58  15  18 SW6       30.38F
BRYCE CANYON   SUNNY     54  22  28 VRB7      30.39F
CEDAR CITY     SUNNY     60  21  22 E9        30.34F
DELTA          SUNNY     57  19  23 N5        30.39F
HANKSVILLE     SUNNY     61  18  18 NW5       30.33F
MILFORD        SUNNY     59  24  26 N17G23    30.37F
MOAB/CYNLANDS  SUNNY     60  12  15 W8        30.30F
PRICE          SUNNY     60  20  21 SE8       30.31F
ST GEORGE      CLEAR     70  21  16 N5        30.29F

$$

REGIONAL REPORTS     COLORADO/ARIZONA

CITY           SKY/WX    TMP DP  RH WIND       PRES   REMARKS
CRAIG, CO      MOSUNNY   51  24  34 SW10      30.31F
GRAND JUNCTION SUNNY     57  17  21 SE8       30.30F
RIFLE          SUNNY     55  20  25 S5        30.29F
MONTROSE       SUNNY     54  15  21 VRB7      30.33F
CORTEZ         SUNNY     62  15  16 SW13G21   30.27F
PAGE, AZ       SUNNY     63  11  13 VRB5      30.32F
GRAND CANYON   SUNNY     59  13  16 E8        30.36F
KINGMAN        SUNNY     74  18  12 N13G21    30.24F
FLAGSTAFF      SUNNY     56   6  13 NE8G20    30.36F

$$

REGIONAL REPORTS    NEVADA/IDAHO/WYOMING

CITY           SKY/WX    TMP DP  RH WIND       PRES   REMARKS
LAS VEGAS, NV  MOSUNNY   77  21  12 E9        30.19F
ELY            SUNNY     59  25  27 VRB6      30.39F
ELKO           SUNNY     60  29  30 CALM      30.38F
POCATELLO, ID  MOSUNNY   57  33  40 W17       30.39F
BURLEY         SUNNY     56  32  40 VRB7      30.37F
EVANSTON, WY   SUNNY     52  27  38 VRB7G16   30.36F
ROCK SPRINGS   SUNNY     53  24  32 W24G33    30.28F
KEMMERER       SUNNY     46  28  49 W22G30    30.35F

$$



USA.gov is the U.S. government's official web portal to all federal, state and local government web resources and services.